星链-2222 (STARLINK-2222 )

导读 | 星芒AI

STARLINK-2222 是 SpaceX Starlink 卫星互联网项目中的一颗低轨道通信卫星。它属于 Starlink 二代星座计划,旨在提供更高速度、更低延迟的全球互联网服务。该卫星采用先进推进系统和激光通信技术,以提升网络效率和稳定性。STARLINK-2222 于近期成功发射,进一步扩展了 Starlink 的覆盖范围和容量,支持更多用户接入高速互联网,尤其在偏远和网络基础设施薄弱地区发挥重要作用。

基本信息
目录编号:
48572
目录名称:
STARLINK-2222
国际标识:
2021-041V
轨道中心:
EARTH
卫星名称:
星链-2222
卫星全名:
星链-2222 (STARLINK-2222 )
卫星状态:
在轨 (已飞行1629 天)
发射日期:
2021-05-15 UTC
国别 :
美国 (US)
星等 :
--
轨道信息
数据来源 国际轨道数据
星历时间: 2025-10-30T06:03:28+0800
9小时前
查看轨道信息
半长轴: 6925.372km
偏心率: 0.0001685
轨道倾角: 53.057°
近地点辐角 99.755°
升交点赤经 8.666°
平近点角 260.363°
近地点: 546.07km
远地点: 548.404km
周期: 95.593分钟
每日圈数: 15.063925
详细信息
固有亮度:
5
最大亮度:
2.5
卫星平台:
Starlink V1.0
覆盖范围:
全球
运营商:
太空探索技术公司
运营商所在国:
美国
制造商(研发单位):
太空探索技术公司
制造商所在国:
美国
使用方式:
暂无
卫星简介
星链(Starlink)计划是由太空探索技术公司(SpaceX)提出的一个巨型低轨卫星互联网星座项目,计划在2019年至2024年间在太空搭建由约1.2万颗卫星组成的“星链”网络,其中1584颗将部署在地球上空550千米处的近地轨道,并从2020年开始工作。该卫星仍在工作。
2D轨道图
3D轨道图
轨道高度分析图
轨道倾角分析图
轨道综合分析图
查看轨道综合分析图